EW6113 Weather Reports


Display with metric or nautical units.
time (UTC)temp
F
wind
direction
speed
MPH
gust
MPH
rain 1hr
in
rain 24hr
in
rain mn
in
humidity
%
barometer
mb
20210805194520 72 238 6.0 16.0 0.00 0.00 0.00 79 1015.9
20210805193026 72 273 11.0 15.0 0.00 0.00 0.00 78 1016.0
20210805191537 71 257 9.0 16.0 0.00 0.00 0.00 79 1016.1
20210805190032 70 276 9.0 14.0 0.00 0.00 0.00 80 1016.2
20210805184504 70 276 7.0 17.0 0.00 0.00 0.00 80 1016.2
20210805183004 70 267 10.0 19.0 0.00 0.00 0.00 80 1016.0
20210805181503 70 229 9.0 18.0 0.00 0.00 0.00 80 1016.0
20210805180437 70 305 10.0 18.0 0.00 0.00 0.00 79 1015.9
20210805174703 68 305 6.0 15.0 0.00 0.00 0.00 75 1016.0
20210805173134 67 290 7.0 14.0 0.00 0.00 0.00 74 1016.1
20210805171649 66 284 8.0 13.0 0.00 0.00 0.00 74 1016.1
20210805170119 65 290 6.0 13.0 0.00 0.00 0.00 74 1016.2
20210805164741 64 293 6.0 12.0 0.00 0.00 0.00 75 1016.2
20210805163118 64 247 8.0 13.0 0.00 0.00 0.00 74 1016.2
20210805161622 64 257 5.0 9.0 0.00 0.00 0.00 75 1016.1
20210805160108 64 269 5.0 11.0 0.00 0.00 0.00 75 1016.1
20210805154637 64 284 4.0 11.0 0.00 0.00 0.00 75 1015.8
20210805153115 64 285 3.0 9.0 0.00 0.00 0.00 75 1015.6
20210805151658 64 265 5.0 8.0 0.00 0.00 0.00 75 1015.5
20210805150050 64 255 3.0 8.0 0.00 0.00 0.00 75 1015.4
20210805144556 63 277 2.0 8.0 0.00 0.00 0.00 75 1015.4
20210805143213 64 300 2.0 8.0 0.00 0.00 0.00 75 1015.2
20210805141541 64 274 2.0 8.0 0.00 0.00 0.00 75 1015.0
20210805140057 64 270 2.0 4.0 0.00 0.00 0.00 75 1014.8
20210805134531 63 272 1.0 3.0 0.00 0.00 0.00 76 1014.9
20210805133059 64 298 0.0 3.0 0.00 0.00 0.00 75 1014.6
20210805131526 64 299 0.0 3.0 0.00 0.00 0.00 75 1014.5
20210805130045 64 254 2.0 5.0 0.00 0.00 0.00 75 1014.3
20210805124603 64 291 3.0 8.0 0.00 0.00 0.00 75 1014.1
20210805123119 64 314 3.0 8.0 0.00 0.00 0.00 75 1014.2
20210805121522 64 264 2.0 7.0 0.00 0.00 0.00 75 1014.2
20210805120122 64 272 5.0 9.0 0.00 0.00 0.00 76 1014.2
20210805114522 64 276 6.0 10.0 0.00 0.00 0.00 76 1014.1
20210805113026 64 242 3.0 7.0 0.00 0.00 0.00 76 1014.2
20210805111524 64 282 2.0 4.0 0.00 0.00 0.00 76 1014.3
20210805110108 65 298 3.0 8.0 0.00 0.00 0.00 76 1014.4
20210805104554 65 291 3.0 9.0 0.00 0.00 0.00 76 1014.3
20210805103021 65 278 4.0 8.0 0.00 0.00 0.00 76 1014.3
20210805101517 65 282 2.0 7.0 0.00 0.00 0.00 76 1014.3
20210805100026 65 300 2.0 8.0 0.00 0.00 0.00 76 1014.2
20210805094533 65 242 3.0 7.0 0.00 0.00 0.00 76 1014.3
20210805093019 65 292 2.0 9.0 0.00 0.00 0.00 76 1014.2
20210805091522 65 288 5.0 8.0 0.00 0.00 0.00 77 1014.2
20210805090008 66 238 4.0 8.0 0.00 0.00 0.00 77 1014.1
20210805084534 66 225 4.0 7.0 0.00 0.00 0.00 77 1014.1
20210805083002 66 275 2.0 7.0 0.00 0.00 0.00 77 1014.2
20210805081719 66 252 4.0 8.0 0.00 0.00 0.00 77 1014.2
20210805081502 66 261 4.0 8.0 0.00 0.00 0.00 77 1014.2
20210805080202 66 281 3.0 8.0 0.00 0.00 0.00 77 1014.1
20210805074645 66 286 2.0 8.0 0.00 0.00 0.00 77 1014.3
20210805073205 66 259 1.0 4.0 0.00 0.00 0.00 77 1014.3
20210805071627 66 313 2.0 5.0 0.00 0.00 0.00 77 1014.3
20210805070115 66 261 3.0 9.0 0.00 0.00 0.00 77 1014.5
20210805064605 66 259 4.0 10.0 0.00 0.00 0.00 77 1014.4
20210805063131 66 304 4.0 9.0 0.00 0.00 0.00 77 1014.3
20210805061709 66 240 4.0 8.0 0.00 0.00 0.00 77 1014.3
20210805060140 66 288 3.0 9.0 0.00 0.00 0.00 77 1014.2
20210805054657 66 265 3.0 9.0 0.00 0.00 0.00 78 1014.4
20210805053201 67 311 5.0 9.0 0.00 0.00 0.00 78 1014.5
20210805051653 67 240 3.0 11.0 0.00 0.00 0.00 78 1014.6
20210805050220 67 263 4.0 11.0 0.00 0.00 0.00 78 1014.6
20210805044606 67 223 4.0 10.0 0.00 0.00 0.00 78 1014.7
20210805043112 67 290 5.0 12.0 0.00 0.00 0.00 78 1014.5
20210805041614 67 263 4.0 9.0 0.00 0.00 0.00 78 1014.4
20210805040056 67 304 5.0 10.0 0.00 0.00 0.00 78 1014.3
20210805034644 67 267 4.0 9.0 0.00 0.00 0.00 79 1014.2
20210805033122 67 265 4.0 12.0 0.00 0.00 0.00 79 1014.2
20210805031645 67 293 7.0 13.0 0.00 0.00 0.00 80 1014.0
20210805030117 67 292 5.0 12.0 0.00 0.00 0.00 80 1013.9
20210805024559 68 271 5.0 12.0 0.00 0.00 0.00 80 1013.9
20210805023056 68 287 8.0 14.0 0.00 0.00 0.00 80 1013.9
20210805021623 69 288 6.0 14.0 0.00 0.00 0.00 80 1013.8
20210805020211 69 259 6.0 12.0 0.00 0.00 0.00 81 1013.8
20210805014609 69 263 5.0 12.0 0.00 0.00 0.00 81 1013.9
20210805013114 69 295 7.0 11.0 0.00 0.00 0.00 81 1014.0
20210805011551 69 249 7.0 12.0 0.00 0.00 0.00 81 1014.1
20210805010136 70 292 7.0 14.0 0.00 0.00 0.00 81 1014.1
20210805004558 70 252 6.0 16.0 0.00 0.00 0.00 81 1014.1
20210805003101 71 264 8.0 15.0 0.00 0.00 0.00 80 1014.1
20210805001554 71 272 9.0 17.0 0.00 0.00 0.00 80 1014.1
20210805000045 71 265 10.0 19.0 0.00 0.00 0.00 80 1014.2
20210804234545 72 268 8.0 17.0 0.00 0.00 0.00 79 1014.2
20210804233043 72 274 9.0 17.0 0.00 0.00 0.00 79 1014.2
20210804231538 73 246 9.0 16.0 0.00 0.00 0.00 77 1014.2
20210804230042 73 267 8.0 17.0 0.00 0.00 0.00 79 1014.2
20210804224555 72 296 11.0 18.0 0.00 0.00 0.00 78 1014.4
20210804223037 72 240 8.0 15.0 0.00 0.00 0.00 78 1014.5
20210804221607 73 271 10.0 15.0 0.00 0.00 0.00 78 1014.5
20210804220037 73 274 8.0 18.0 0.00 0.00 0.00 77 1014.7
20210804214529 73 297 7.0 15.0 0.00 0.00 0.00 78 1014.7
20210804213116 74 305 7.0 14.0 0.00 0.00 0.00 76 1014.9
20210804211540 73 296 9.0 15.0 0.00 0.00 0.00 77 1015.0
20210804210045 72 254 7.0 14.0 0.00 0.00 0.00 78 1015.1
20210804204538 73 298 7.0 15.0 0.00 0.00 0.00 77 1015.2
20210804203032 72 291 8.0 14.0 0.00 0.00 0.00 78 1015.3
20210804201616 71 272 7.0 13.0 0.00 0.00 0.00 79 1015.3
20210804200105 71 291 7.0 15.0 0.00 0.00 0.00 79 1015.4